Location: Newark
(44.4500°N, 0.0833°W)
Time: 06:25:12
(UTC+00:00)

N. Korean satellite - Visible Passes

Search period start: 07 December 2019 00:00
Search period end: 17 December 2019 00:00
Orbit: 456 x 506 km, 97.2° (Epoch: 06 December)

Date Brightness Start Highest point End Pass type
(mag) Time Alt. Az. Time Alt. Az. Time Alt. Az.
07 Dec 10.1 04:47:42 10° ENE 04:48:53 11° E 04:50:03 10° ESE visible
07 Dec 6.7 06:19:07 10° N 06:22:34 47° WNW 06:25:57 10° SSW visible
07 Dec 6.6 16:55:27 10° SSE 16:59:09 77° ENE 17:02:52 10° N visible
08 Dec 6.6 05:53:36 10° NNE 05:57:11 79° ESE 06:00:40 10° S visible
08 Dec 9.9 18:04:58 10° SW 18:07:20 16° W 18:09:41 10° NW visible
09 Dec 8.2 05:28:23 10° NNE 05:31:42 35° E 05:34:55 10° SSE visible
09 Dec 8.7 17:38:25 10° SSW 17:41:44 30° W 17:45:04 10° NNW visible
10 Dec 9.5 05:03:38 10° NE 05:06:06 18° E 05:08:33 10° SE visible
10 Dec 7.4 06:36:27 10° N 06:39:33 29° WNW 06:42:35 10° SW visible
10 Dec 7.2 17:12:33 10° S 17:16:14 64° W 17:19:56 10° NNW visible
11 Dec 6.5 06:10:43 10° N 06:14:13 60° WNW 06:17:38 10° SSW visible
11 Dec 6.7 16:47:10 10° SSE 16:50:50 60° ENE 16:54:28 10° N visible
12 Dec 7.0 05:45:17 10° NNE 05:48:48 61° E 05:52:13 10° S visible
12 Dec 9.6 17:56:10 10° SW 17:58:54 19° W 18:01:39 10° NW visible
13 Dec 8.6 05:20:11 10° NE 05:23:16 28° E 05:26:18 10° SSE visible
13 Dec 8.3 17:29:53 10° SSW 17:33:20 38° W 17:36:49 10° NNW visible
14 Dec 9.8 04:55:41 10° ENE 04:57:38 14° E 04:59:34 10° SE visible
14 Dec 7.0 06:27:57 10° N 06:31:12 35° WNW 06:34:23 10° SW visible
14 Dec 6.7 17:04:10 10° S 17:07:52 81° WSW 17:11:33 10° NNW visible
15 Dec 6.3 06:02:19 10° N 06:05:50 78° WNW 06:09:16 10° SSW visible
15 Dec 10.0 18:14:32 10° WSW 18:16:07 12° W 18:17:42 10° WNW visible
16 Dec 7.5 05:36:58 10° NNE 05:40:22 46° E 05:43:41 10° S visible
16 Dec 9.2 17:47:27 10° SSW 17:50:28 24° W 17:53:29 10° NW visible
